,,,PA_Meas_PMT16A,,PR_Meas_QMR101_102,,RH_Meas_QMH101,,SR_Meas_QMS101,,TA_Meas_QMH101,,GenWind,,GenWind,
date,time,status,PA,status,PR,status,RH,status,SR,status,TA,status,DirAvg,status,SpdAvg,
2009-11-14, 00:00:04,VALID,998.813,VALID,0,VALID,87.6872,VALID,0,VALID,24.1305,VALID,152,VALID,0.467187,
2009-11-14, 00:01:04,VALID,998.784,VALID,0,VALID,87.588,VALID,0,VALID,24.1305,VALID,152,VALID,0.333203,
2009-11-14, 00:02:04,VALID,998.768,VALID,0,VALID,87.9619,VALID,0,VALID,24.0701,VALID,119,VALID,0.594922,
2009-11-14, 00:03:04,VALID,998.789,VALID,0,VALID,87.8932,VALID,0,VALID,24.0915,VALID,95,VALID,0.614062,
2009-11-14, 00:04:04,VALID,998.776,VALID,0,VALID,87.8246,VALID,0,VALID,24.0915,VALID,95,VALID,0.594922,
2009-11-14, 00:05:04,VALID,998.773,VALID,0,VALID,87.2523,VALID,0,VALID,24.0915,VALID,95,VALID,0.581641,
2009-11-14, 00:06:04,VALID,998.777,VALID,0,VALID,87.0387,VALID,0.112286,VALID,24.0329,VALID,95,VALID,0.428906,
2009-11-14, 00:07:04,VALID,998.758,VALID,0,VALID,87.6414,VALID,0,VALID,23.9354,VALID,79,VALID,0.882422,
2009-11-14, 00:08:04,VALID,998.777,VALID,0,VALID,88.8164,VALID,0.112286,VALID,23.875,VALID,79,VALID,0.963672,
2009-11-14, 00:09:04,VALID,998.71,VALID,0,VALID,89.1216,VALID,0,VALID,23.8768,VALID,78,VALID,0.838281,
2009-11-14, 00:10:04,VALID,998.71,VALID,0,VALID,89.0911,VALID,0,VALID,23.914,VALID,64,VALID,0.820703,
2009-11-14, 00:11:04,VALID,998.669,VALID,0,VALID,88.969,VALID,0,VALID,23.9744,VALID,59,VALID,0.685156,
2009-11-14, 00:12:04,VALID,998.635,VALID,0,VALID,88.9537,VALID,0,VALID,24.0134,VALID,51,VALID,0.758594,
2009-11-14, 00:13:04,VALID,998.609,VALID,0,VALID,88.908,VALID,0,VALID,24.0329,VALID,51,VALID,0.640625,
2009-11-14, 00:14:04,VALID,998.58,VALID,0,VALID,88.4578,VALID,0,VALID,24.0311,VALID,51,VALID,0.736719,
2009-11-14, 00:15:04,VALID,998.549,VALID,0,VALID,88.5036,VALID,0,VALID,24.0915,VALID,50,VALID,0.921094,
2009-11-14, 00:16:04,VALID,998.541,VALID,0,VALID,89.1445,VALID,0,VALID,24.0915,VALID,48,VALID,0.985937,
2009-11-14, 00:17:04,VALID,998.529,VALID,0,VALID,88.908,VALID,0,VALID,24.0329,VALID,48,VALID,0.914063,
2009-11-14, 00:18:04,VALID,998.512,VALID,0,VALID,88.7783,VALID,0,VALID,24.0329,VALID,45,VALID,0.994922,
2009-11-14, 00:19:04,VALID,998.476,VALID,0,VALID,88.5341,VALID,0,VALID,23.9921,VALID,45,VALID,1.1043,
2009-11-14, 00:20:04,VALID,998.462,VALID,0,VALID,89.0911,VALID,0,VALID,23.9939,VALID,42,VALID,1.075,
2009-11-14, 00:21:04,VALID,998.428,VALID,0,VALID,88.8927,VALID,0,VALID,23.9336,VALID,42,VALID,0.875,
2009-11-14, 00:22:04,VALID,998.376,VALID,0,VALID,88.908,VALID,0,VALID,23.875,VALID,42,VALID,0.407031,
2009-11-14, 00:23:04,VALID,998.39,VALID,0,VALID,88.9995,VALID,0,VALID,23.797,VALID,42,VALID,0.308203,
2009-11-14, 00:24:04,VALID,998.373,VALID,0,VALID,89.5412,VALID,0.112286,VALID,23.7384,VALID,39,VALID,0.489062,
2009-11-14, 00:25:04,VALID,998.344,VALID,0,VALID,89.9837,VALID,0,VALID,23.6994,VALID,38,VALID,0.500391,
2009-11-14, 00:26:04,VALID,998.332,VALID,0,VALID,90.266,VALID,0,VALID,23.6994,VALID,31,VALID,0.531641,
2009-11-14, 00:27:04,VALID,998.289,VALID,0,VALID,90.3271,VALID,0,VALID,23.6994,VALID,31,VALID,0.494922,
2009-11-14, 00:28:04,VALID,998.31,VALID,0,VALID,90.4644,VALID,0,VALID,23.7012,VALID,31,VALID,0.345313,
2009-11-14, 00:29:04,VALID,998.289,VALID,0,VALID,90.6628,VALID,0.112286,VALID,23.6994,VALID,30,VALID,0.373828,
2009-11-14, 00:30:04,VALID,998.275,VALID,0,VALID,90.617,VALID,0.112286,VALID,23.7012,VALID,30,VALID,0.533984,
2009-11-14, 00:31:04,VALID,998.253,VALID,0,VALID,90.6399,VALID,0.112286,VALID,23.6994,VALID,30,VALID,0.628906,
2009-11-14, 00:32:04,VALID,998.255,VALID,0,VALID,90.5178,VALID,0,VALID,23.6799,VALID,30,VALID,0.789063,
2009-11-14, 00:33:04,VALID,998.212,VALID,0,VALID,90.3194,VALID,0,VALID,23.7012,VALID,30,VALID,0.8375,
2009-11-14, 00:34:04,VALID,998.21,VALID,0,VALID,89.854,VALID,0,VALID,23.7207,VALID,30,VALID,0.61875,
2009-11-14, 00:35:04,VALID,998.19,VALID,0,VALID,89.7014,VALID,0,VALID,23.7597,VALID,30,VALID,0.448828,
2009-11-14, 00:36:04,VALID,998.126,VALID,0,VALID,89.4039,VALID,0,VALID,23.7793,VALID,30,VALID,0.2,
2009-11-14, 00:37:04,VALID,998.113,VALID,0,VALID,89.1063,VALID,0,VALID,23.7579,VALID,30,VALID,0,
2009-11-14, 00:38:04,VALID,998.087,VALID,0,VALID,88.9385,VALID,0,VALID,23.7775,VALID,30,VALID,0.0148437,
2009-11-14, 00:39:04,VALID,998.049,VALID,0,VALID,88.8469,VALID,0,VALID,23.7579,VALID,30,VALID,0.126172,
2009-11-14, 00:40:04,VALID,998.051,VALID,0,VALID,88.7935,VALID,0.112286,VALID,23.7384,VALID,30,VALID,0,
2009-11-14, 00:41:04,VALID,998.06,VALID,0,VALID,88.8698,VALID,0,VALID,23.7189,VALID,30,VALID,0.396875,
2009-11-14, 00:42:04,VALID,998.044,VALID,0,VALID,88.8851,VALID,0,VALID,23.7189,VALID,30,VALID,0.300781,
2009-11-14, 00:43:04,VALID,998.059,VALID,0,VALID,88.8851,VALID,0,VALID,23.7207,VALID,51,VALID,0.623828,
2009-11-14, 00:44:04,VALID,998.022,VALID,0,VALID,88.6943,VALID,0.112286,VALID,23.6799,VALID,51,VALID,0.415625,
2009-11-14, 00:45:04,VALID,998.049,VALID,0,VALID,88.8698,VALID,0,VALID,23.6409,VALID,51,VALID,0.500781,
2009-11-14, 00:46:04,VALID,998.046,VALID,0,VALID,89.1063,VALID,0,VALID,23.6214,VALID,51,VALID,0.569531,
2009-11-14, 00:47:04,VALID,998.014,VALID,0,VALID,89.3505,VALID,0,VALID,23.6036,VALID,51,VALID,0.683594,
2009-11-14, 00:48:04,VALID,997.974,VALID,0,VALID,89.6633,VALID,0,VALID,23.5841,VALID,51,VALID,0.617578,
2009-11-14, 00:49:04,VALID,997.954,VALID,0,VALID,89.9074,VALID,0,VALID,23.5451,VALID,51,VALID,0.548437,
2009-11-14, 00:50:04,VALID,997.963,VALID,0,VALID,90.0219,VALID,0.112286,VALID,23.5061,VALID,51,VALID,0.391016,
2009-11-14, 00:51:04,VALID,997.938,VALID,0,VALID,90.2355,VALID,0,VALID,23.4671,VALID,51,VALID,0.355469,
2009-11-14, 00:52:04,VALID,997.904,VALID,0,VALID,90.4339,VALID,0,VALID,23.4475,VALID,51,VALID,0.211328,
2009-11-14, 00:53:04,VALID,997.886,VALID,0,VALID,90.5254,VALID,0,VALID,23.4085,VALID,51,VALID,0,
2009-11-14, 00:54:04,VALID,997.868,VALID,0,VALID,90.5865,VALID,0,VALID,23.3695,VALID,51,VALID,0,
2009-11-14, 00:55:04,VALID,997.831,VALID,0,VALID,90.7238,VALID,0,VALID,23.35,VALID,51,VALID,0.00273437,
2009-11-14, 00:56:04,VALID,997.867,VALID,0,VALID,90.8154,VALID,0,VALID,23.311,VALID,51,VALID,0,
2009-11-14, 00:57:04,VALID,997.847,VALID,0,VALID,90.9298,VALID,0.112286,VALID,23.311,VALID,51,VALID,0,
2009-11-14, 00:58:04,VALID,997.847,VALID,0,VALID,91.0977,VALID,0,VALID,23.2897,VALID,51,VALID,0.198437,
2009-11-14, 00:59:04,VALID,997.853,VALID,0,VALID,91.2045,VALID,0,VALID,23.2702,VALID,51,VALID,0,
2009-11-14, 01:00:04,VALID,997.865,VALID,0,VALID,91.235,VALID,0,VALID,23.2702,VALID,51,VALID,0,
2009-11-14, 01:01:04,VALID,997.881,VALID,0,VALID,91.3113,VALID,0,VALID,23.2915,VALID,51,VALID,0,
2009-11-14, 01:02:04,VALID,997.864,VALID,0,VALID,91.441,VALID,0,VALID,23.311,VALID,51,VALID,0.214844,
2009-11-14, 01:03:04,VALID,997.876,VALID,0,VALID,91.4639,VALID,0,VALID,23.2897,VALID,51,VALID,0.105859,
2009-11-14, 01:04:04,VALID,997.866,VALID,0,VALID,91.3952,VALID,0,VALID,23.3305,VALID,51,VALID,0.0359375,
2009-11-14, 01:05:04,VALID,997.883,VALID,0,VALID,91.2731,VALID,0,VALID,23.35,VALID,51,VALID,0.121875,
2009-11-14, 01:06:04,VALID,997.843,VALID,0,VALID,91.1129,VALID,0,VALID,23.3695,VALID,51,VALID,0.0621094,
2009-11-14, 01:07:04,VALID,997.852,VALID,0,VALID,90.9756,VALID,0,VALID,23.3677,VALID,51,VALID,0.244531,
2009-11-14, 01:08:04,VALID,997.833,VALID,0,VALID,90.8764,VALID,0,VALID,23.3482,VALID,51,VALID,0.216016,
2009-11-14, 01:09:04,VALID,997.815,VALID,0,VALID,90.6628,VALID,0,VALID,23.3872,VALID,51,VALID,0.392578,
2009-11-14, 01:10:04,VALID,997.83,VALID,0,VALID,90.35,VALID,0,VALID,23.4263,VALID,51,VALID,0.0785156,
2009-11-14, 01:11:04,VALID,997.83,VALID,0,VALID,90.0677,VALID,0,VALID,23.4263,VALID,70,VALID,0.367188,
2009-11-14, 01:12:04,VALID,997.799,VALID,0,VALID,89.9914,VALID,0,VALID,23.4263,VALID,70,VALID,0.439844,
2009-11-14, 01:13:04,VALID,997.803,VALID,0,VALID,90.1211,VALID,0,VALID,23.4263,VALID,71,VALID,0.254687,
2009-11-14, 01:14:04,VALID,997.811,VALID,0,VALID,89.9837,VALID,0,VALID,23.4671,VALID,100,VALID,0.285547,
2009-11-14, 01:15:04,VALID,997.784,VALID,0,VALID,90.3271,VALID,0,VALID,23.4688,VALID,100,VALID,0.321094,
2009-11-14, 01:16:04,VALID,997.786,VALID,0,VALID,90.2813,VALID,0,VALID,23.428,VALID,100,VALID,0,
2009-11-14, 01:17:04,VALID,997.791,VALID,0,VALID,90.5178,VALID,0,VALID,23.428,VALID,100,VALID,0,
2009-11-14, 01:18:04,VALID,997.787,VALID,0,VALID,90.6246,VALID,0,VALID,23.4085,VALID,100,VALID,0,
2009-11-14, 01:19:04,VALID,997.805,VALID,0,VALID,90.6628,VALID,0,VALID,23.389,VALID,100,VALID,0,
2009-11-14, 01:20:04,VALID,997.82,VALID,0,VALID,90.6246,VALID,0,VALID,23.3695,VALID,100,VALID,0,
2009-11-14, 01:21:04,VALID,997.85,VALID,0,VALID,90.7314,VALID,0,VALID,23.35,VALID,100,VALID,0,
2009-11-14, 01:22:04,VALID,997.816,VALID,0,VALID,90.7772,VALID,0,VALID,23.3305,VALID,100,VALID,0,
2009-11-14, 01:23:04,VALID,997.795,VALID,0,VALID,90.8077,VALID,0,VALID,23.3305,VALID,100,VALID,0,
2009-11-14, 01:24:05,VALID,997.832,VALID,0,VALID,90.8764,VALID,0,VALID,23.311,VALID,100,VALID,0,
2009-11-14, 01:25:05,VALID,997.786,VALID,0,VALID,90.9527,VALID,0,VALID,23.311,VALID,100,VALID,0,
2009-11-14, 01:26:05,VALID,997.796,VALID,0,VALID,91.1358,VALID,0,VALID,23.311,VALID,100,VALID,0,
2009-11-14, 01:27:05,VALID,997.796,VALID,0,VALID,91.1816,VALID,0,VALID,23.3305,VALID,92,VALID,0,
2009-11-14, 01:28:05,VALID,997.785,VALID,0,VALID,91.2045,VALID,0,VALID,23.35,VALID,88,VALID,0,
2009-11-14, 01:29:05,VALID,997.795,VALID,0,VALID,91.1206,VALID,0,VALID,23.3695,VALID,52,VALID,0.551562,
2009-11-14, 01:30:05,VALID,997.779,VALID,0,VALID,90.9374,VALID,0,VALID,23.389,VALID,34,VALID,0.592578,
2009-11-14, 01:31:05,VALID,997.781,VALID,0,VALID,90.7467,VALID,0,VALID,23.3677,VALID,34,VALID,0.606641,
2009-11-14, 01:32:05,VALID,997.779,VALID,0,VALID,90.8154,VALID,0,VALID,23.35,VALID,34,VALID,0.583203,
2009-11-14, 01:33:05,VALID,997.775,VALID,0,VALID,90.8383,VALID,0,VALID,23.2897,VALID,35,VALID,0.566016,
2009-11-14, 01:34:05,VALID,997.759,VALID,0,VALID,90.6246,VALID,0,VALID,23.2702,VALID,87,VALID,0.667578,
2009-11-14, 01:35:05,VALID,997.744,VALID,0,VALID,90.4949,VALID,0,VALID,23.2507,VALID,94,VALID,0.469922,
2009-11-14, 01:36:05,VALID,997.753,VALID,0,VALID,90.1592,VALID,0,VALID,23.2702,VALID,110,VALID,0.647266,
2009-11-14, 01:37:05,VALID,997.732,VALID,0,VALID,89.9074,VALID,0,VALID,23.2897,VALID,118,VALID,0.621094,
2009-11-14, 01:38:05,VALID,997.683,VALID,0,VALID,89.648,VALID,0,VALID,23.3305,VALID,118,VALID,0.602734,
2009-11-14, 01:39:05,VALID,997.658,VALID,0,VALID,89.5717,VALID,0,VALID,23.35,VALID,118,VALID,0.677344,
2009-11-14, 01:40:05,VALID,997.682,VALID,0,VALID,89.381,VALID,0,VALID,23.389,VALID,118,VALID,0.589063,
2009-11-14, 01:41:05,VALID,997.642,VALID,0,VALID,89.3581,VALID,0,VALID,23.389,VALID,113,VALID,0.547266,
2009-11-14, 01:42:05,VALID,997.625,VALID,0,VALID,89.3505,VALID,0,VALID,23.4085,VALID,111,VALID,0.547266,
2009-11-14, 01:43:05,VALID,997.59,VALID,0,VALID,89.3047,VALID,0,VALID,23.4067,VALID,96,VALID,0.690625,
2009-11-14, 01:44:05,VALID,997.601,VALID,0,VALID,89.2208,VALID,0,VALID,23.4067,VALID,92,VALID,0.660156,
2009-11-14, 01:45:05,VALID,997.618,VALID,0,VALID,89.175,VALID,0,VALID,23.428,VALID,92,VALID,0.396094,
2009-11-14, 01:46:05,VALID,997.59,VALID,0,VALID,89.2208,VALID,0,VALID,23.428,VALID,92,VALID,0.215625,
2009-11-14, 01:47:05,VALID,997.561,VALID,0,VALID,89.1292,VALID,0,VALID,23.428,VALID,95,VALID,0.332422,
2009-11-14, 01:48:05,VALID,997.567,VALID,0,VALID,89.3047,VALID,0,VALID,23.4085,VALID,95,VALID,0.166797,
2009-11-14, 01:49:05,VALID,997.538,VALID,0,VALID,89.4497,VALID,0,VALID,23.4085,VALID,95,VALID,0.332422,
2009-11-14, 01:50:05,VALID,997.522,VALID,0,VALID,89.526,VALID,0,VALID,23.389,VALID,99,VALID,0.452734,
2009-11-14, 01:51:05,VALID,997.495,VALID,0,VALID,89.7243,VALID,0,VALID,23.4298,VALID,124,VALID,0.660156,
2009-11-14, 01:52:05,VALID,997.492,VALID,0,VALID,89.7549,VALID,0,VALID,23.4085,VALID,124,VALID,0.620703,
2009-11-14, 01:53:05,VALID,997.466,VALID,0,VALID,89.6786,VALID,0,VALID,23.4085,VALID,124,VALID,0.474609,
2009-11-14, 01:54:05,VALID,997.456,VALID,0,VALID,89.648,VALID,0,VALID,23.4493,VALID,124,VALID,0.416016,
2009-11-14, 01:55:05,VALID,997.437,VALID,0,VALID,89.6328,VALID,0,VALID,23.428,VALID,124,VALID,0.171484,
2009-11-14, 01:56:05,VALID,997.393,VALID,0,VALID,89.5717,VALID,0,VALID,23.4085,VALID,124,VALID,0,
2009-11-14, 01:57:05,VALID,997.395,VALID,0,VALID,89.526,VALID,0,VALID,23.4298,VALID,124,VALID,0.0046875,
2009-11-14, 01:58:05,VALID,997.388,VALID,0,VALID,89.4497,VALID,0,VALID,23.389,VALID,124,VALID,0.200391,
2009-11-14, 01:59:05,VALID,997.433,VALID,0,VALID,89.4954,VALID,0,VALID,23.3908,VALID,124,VALID,0.141797,
2009-11-14, 02:00:05,VALID,997.435,VALID,0,VALID,89.442,VALID,0,VALID,23.4103,VALID,124,VALID,0,
2009-11-14, 02:01:05,VALID,997.449,VALID,0,VALID,89.1521,VALID,0,VALID,23.389,VALID,92,VALID,0.516406,
2009-11-14, 02:02:05,VALID,997.453,VALID,0,VALID,88.9385,VALID,0,VALID,23.4085,VALID,88,VALID,1.00703,
2009-11-14, 02:03:05,VALID,997.45,VALID,0,VALID,88.8546,VALID,0,VALID,23.4493,VALID,86,VALID,0.834375,
2009-11-14, 02:04:05,VALID,997.45,VALID,0,VALID,88.8393,VALID,0,VALID,23.4475,VALID,86,VALID,0.836719,
2009-11-14, 02:05:05,VALID,997.456,VALID,0,VALID,88.9461,VALID,0,VALID,23.4671,VALID,83,VALID,0.786719,
2009-11-14, 02:06:05,VALID,997.405,VALID,0,VALID,88.5646,VALID,0,VALID,23.4866,VALID,74,VALID,0.885547,
2009-11-14, 02:07:05,VALID,997.427,VALID,0,VALID,88.3586,VALID,0,VALID,23.4866,VALID,69,VALID,1.09375,
2009-11-14, 02:08:05,VALID,997.411,VALID,0,VALID,88.0534,VALID,0,VALID,23.4866,VALID,34,VALID,0.956641,
2009-11-14, 02:09:05,VALID,997.399,VALID,0,VALID,88.3663,VALID,0,VALID,23.4866,VALID,17,VALID,1.01406,
2009-11-14, 02:10:05,VALID,997.413,VALID,0,VALID,88.3052,VALID,0,VALID,23.4884,VALID,21,VALID,1.15664,
2009-11-14, 02:11:05,VALID,997.402,VALID,0,VALID,88.7859,VALID,0,VALID,23.4493,VALID,24,VALID,1.26406,
2009-11-14, 02:12:05,VALID,997.411,VALID,0,VALID,88.9843,VALID,0,VALID,23.389,VALID,18,VALID,1.41484,
2009-11-14, 02:13:05,VALID,997.407,VALID,0,VALID,89.2437,VALID,0,VALID,23.3323,VALID,19,VALID,1.31367,
2009-11-14, 02:14:05,VALID,997.388,VALID,0,VALID,89.4954,VALID,0,VALID,23.2737,VALID,19,VALID,1.2707,
2009-11-14, 02:15:05,VALID,997.37,VALID,0,VALID,89.7167,VALID,0,VALID,23.2134,VALID,19,VALID,1.15508,
2009-11-14, 02:16:05,VALID,997.352,VALID,0,VALID,90.0066,VALID,0,VALID,23.1549,VALID,22,VALID,1.06406,
2009-11-14, 02:17:05,VALID,997.324,VALID,0,VALID,90.1974,VALID,0,VALID,23.1566,VALID,25,VALID,0.751562,
2009-11-14, 02:18:05,VALID,997.33,VALID,0,VALID,90.4568,VALID,0,VALID,23.0964,VALID,26,VALID,0.682422,
2009-11-14, 02:19:05,VALID,997.303,VALID,0,VALID,90.6704,VALID,0,VALID,23.0769,VALID,28,VALID,0.666016,
2009-11-14, 02:20:05,VALID,997.304,VALID,0,VALID,90.7314,VALID,0,VALID,23.0769,VALID,29,VALID,0.647266,
2009-11-14, 02:21:05,VALID,997.288,VALID,0,VALID,90.9527,VALID,0,VALID,23.0964,VALID,31,VALID,0.736719,
2009-11-14, 02:22:05,VALID,997.293,VALID,0,VALID,90.9985,VALID,0,VALID,23.0786,VALID,31,VALID,0.883594,
2009-11-14, 02:23:05,VALID,997.222,VALID,0,VALID,91.0366,VALID,0,VALID,23.0769,VALID,31,VALID,0.716406,
2009-11-14, 02:24:05,VALID,997.248,VALID,0,VALID,91.0061,VALID,0,VALID,23.0981,VALID,31,VALID,0.592578,
2009-11-14, 02:25:05,VALID,997.245,VALID,0,VALID,90.9374,VALID,0,VALID,23.0769,VALID,31,VALID,0.460156,
2009-11-14, 02:26:05,VALID,997.188,VALID,0,VALID,90.9909,VALID,0,VALID,23.0769,VALID,31,VALID,0.3375,
2009-11-14, 02:27:05,VALID,997.212,VALID,0,VALID,91.0977,VALID,0,VALID,23.0769,VALID,31,VALID,0.446875,
2009-11-14, 02:28:05,VALID,997.201,VALID,0,VALID,91.1663,VALID,0,VALID,23.0769,VALID,31,VALID,0.318359,
2009-11-14, 02:29:05,VALID,997.188,VALID,0,VALID,91.1434,VALID,0,VALID,23.0769,VALID,31,VALID,0.3,
2009-11-14, 02:30:05,VALID,997.197,VALID,0,VALID,91.0366,VALID,0,VALID,23.0786,VALID,31,VALID,0.0195313,
2009-11-14, 02:31:05,VALID,997.204,VALID,0,VALID,91.1434,VALID,0,VALID,23.0378,VALID,31,VALID,0,
2009-11-14, 02:32:05,VALID,997.178,VALID,0,VALID,91.1892,VALID,0,VALID,23.0378,VALID,31,VALID,0.302734,
2009-11-14, 02:33:05,VALID,997.166,VALID,0,VALID,91.2579,VALID,0,VALID,23.0378,VALID,31,VALID,0.418359,
2009-11-14, 02:34:05,VALID,997.193,VALID,0,VALID,91.4257,VALID,0,VALID,23.0573,VALID,31,VALID,0.454297,
2009-11-14, 02:35:05,VALID,997.21,VALID,0,VALID,91.5173,VALID,0,VALID,23.0769,VALID,31,VALID,0.449609,
2009-11-14, 02:36:05,VALID,997.197,VALID,0,VALID,91.4181,VALID,0,VALID,23.1159,VALID,31,VALID,0.401172,
2009-11-14, 02:37:05,VALID,997.173,VALID,0,VALID,91.2274,VALID,0,VALID,23.1549,VALID,31,VALID,0.46875,
2009-11-14, 02:38:05,VALID,997.203,VALID,0,VALID,91.0748,VALID,0,VALID,23.1939,VALID,86,VALID,0.58125,
2009-11-14, 02:39:05,VALID,997.193,VALID,0,VALID,90.8688,VALID,0,VALID,23.1939,VALID,105,VALID,0.609766,
2009-11-14, 02:40:05,VALID,997.183,VALID,0,VALID,90.8306,VALID,0,VALID,23.2134,VALID,105,VALID,0.635547,
2009-11-14, 02:41:05,VALID,997.157,VALID,0,VALID,90.8154,VALID,0,VALID,23.2134,VALID,107,VALID,0.714453,
2009-11-14, 02:42:05,VALID,997.151,VALID,0,VALID,90.7543,VALID,0,VALID,23.2134,VALID,111,VALID,0.603516,
2009-11-14, 02:43:05,VALID,997.165,VALID,0,VALID,90.6628,VALID,0,VALID,23.1939,VALID,118,VALID,0.638672,
2009-11-14, 02:44:05,VALID,997.142,VALID,0,VALID,90.4644,VALID,0,VALID,23.1939,VALID,128,VALID,0.83125,
2009-11-14, 02:45:05,VALID,997.142,VALID,0,VALID,90.1516,VALID,0,VALID,23.1744,VALID,126,VALID,0.828516,
2009-11-14, 02:46:05,VALID,997.166,VALID,0,VALID,89.8235,VALID,0,VALID,23.1762,VALID,126,VALID,0.835938,
2009-11-14, 02:47:05,VALID,997.166,VALID,0,VALID,89.854,VALID,0,VALID,23.1354,VALID,118,VALID,0.823828,
2009-11-14, 02:48:05,VALID,997.172,VALID,0,VALID,90.0906,VALID,0,VALID,23.1566,VALID,107,VALID,0.890234,
2009-11-14, 02:49:05,VALID,997.198,VALID,0,VALID,90.1745,VALID,0,VALID,23.1354,VALID,91,VALID,0.822266,
2009-11-14, 02:50:05,VALID,997.178,VALID,0,VALID,90.4186,VALID,0,VALID,23.1354,VALID,91,VALID,0.816797,
2009-11-14, 02:51:05,VALID,997.206,VALID,0,VALID,90.2584,VALID,0,VALID,23.1549,VALID,93,VALID,0.636328,
2009-11-14, 02:52:05,VALID,997.191,VALID,0,VALID,90.3652,VALID,0,VALID,23.1354,VALID,94,VALID,0.680469,
2009-11-14, 02:53:05,VALID,997.21,VALID,0,VALID,90.5712,VALID,0,VALID,23.1371,VALID,94,VALID,0.660547,
2009-11-14, 02:54:05,VALID,997.247,VALID,0,VALID,90.678,VALID,0,VALID,23.1159,VALID,94,VALID,0.587109,
2009-11-14, 02:55:05,VALID,997.264,VALID,0,VALID,90.7925,VALID,0,VALID,23.1159,VALID,94,VALID,0.502734,
2009-11-14, 02:56:05,VALID,997.269,VALID,0,VALID,90.7391,VALID,0,VALID,23.0964,VALID,93,VALID,0.428516,
2009-11-14, 02:57:05,VALID,997.25,VALID,0,VALID,90.7925,VALID,0,VALID,23.0769,VALID,91,VALID,0.500391,
2009-11-14, 02:58:05,VALID,997.3,VALID,0,VALID,90.8611,VALID,0,VALID,23.0769,VALID,63,VALID,0.698047,
2009-11-14, 02:59:05,VALID,997.294,VALID,0,VALID,90.884,VALID,0,VALID,23.0573,VALID,55,VALID,0.722656,
2009-11-14, 03:00:05,VALID,997.336,VALID,0,VALID,90.7925,VALID,0,VALID,23.0573,VALID,45,VALID,0.598437,
2009-11-14, 03:01:05,VALID,997.339,VALID,0,VALID,90.884,VALID,0,VALID,23.0378,VALID,36,VALID,0.607813,
2009-11-14, 03:02:05,VALID,997.353,VALID,0,VALID,90.9298,VALID,0,VALID,23.0396,VALID,18,VALID,0.487109,
2009-11-14, 03:03:05,VALID,997.369,VALID,0,VALID,91.0061,VALID,0,VALID,23.0183,VALID,18,VALID,0.482812,
2009-11-14, 03:04:05,VALID,997.37,VALID,0,VALID,91.2655,VALID,0,VALID,23.0378,VALID,18,VALID,0.374609,
2009-11-14, 03:05:05,VALID,997.371,VALID,0,VALID,91.3494,VALID,0,VALID,23.0573,VALID,18,VALID,0.282813,
2009-11-14, 03:06:05,VALID,997.384,VALID,0,VALID,91.3418,VALID,0,VALID,23.0769,VALID,281,VALID,0.520703,
2009-11-14, 03:07:05,VALID,997.368,VALID,0,VALID,91.1892,VALID,0,VALID,23.1371,VALID,270,VALID,0.345313,
2009-11-14, 03:08:05,VALID,997.362,VALID,0,VALID,91.0519,VALID,0,VALID,23.1354,VALID,269,VALID,0.302734,
2009-11-14, 03:09:05,VALID,997.372,VALID,0,VALID,90.411,VALID,0,VALID,23.1549,VALID,159,VALID,0.676172,
2009-11-14, 03:10:05,VALID,997.372,VALID,0,VALID,89.587,VALID,0,VALID,23.1939,VALID,134,VALID,0.824219,
2009-11-14, 03:11:05,VALID,997.342,VALID,0,VALID,88.9919,VALID,0,VALID,23.2329,VALID,126,VALID,0.817578,
2009-11-14, 03:12:05,VALID,997.317,VALID,0,VALID,88.496,VALID,0,VALID,23.2915,VALID,121,VALID,1.12227,
2009-11-14, 03:13:05,VALID,997.339,VALID,0,VALID,88.2213,VALID,0,VALID,23.3305,VALID,118,VALID,0.780859,
2009-11-14, 03:14:05,VALID,997.35,VALID,0,VALID,88.0992,VALID,0,VALID,23.3695,VALID,118,VALID,0.642187,
2009-11-14, 03:15:05,VALID,997.331,VALID,0,VALID,88.0306,VALID,0,VALID,23.4103,VALID,118,VALID,0.55,
2009-11-14, 03:16:05,VALID,997.338,VALID,0,VALID,87.8932,VALID,0,VALID,23.4085,VALID,131,VALID,0.675781,
2009-11-14, 03:17:05,VALID,997.344,VALID,0,VALID,87.794,VALID,0,VALID,23.4493,VALID,168,VALID,0.712891,
2009-11-14, 03:18:05,VALID,997.341,VALID,0,VALID,87.5194,VALID,0,VALID,23.5079,VALID,183,VALID,0.754297,
2009-11-14, 03:19:05,VALID,997.361,VALID,0,VALID,87.3668,VALID,0,VALID,23.5469,VALID,181,VALID,0.691406,
2009-11-14, 03:20:05,VALID,997.365,VALID,0,VALID,87.2294,VALID,0,VALID,23.5469,VALID,169,VALID,0.831641,
2009-11-14, 03:21:05,VALID,997.399,VALID,0,VALID,87.2142,VALID,0,VALID,23.5256,VALID,159,VALID,0.663281,
2009-11-14, 03:22:05,VALID,997.432,VALID,0,VALID,87.1837,VALID,0,VALID,23.5061,VALID,165,VALID,0.847266,
2009-11-14, 03:23:05,VALID,997.458,VALID,0,VALID,87.1913,VALID,0,VALID,23.5274,VALID,178,VALID,0.648828,
2009-11-14, 03:24:05,VALID,997.5,VALID,0,VALID,87.3515,VALID,0,VALID,23.5079,VALID,178,VALID,0.424219,
2009-11-14, 03:25:05,VALID,997.51,VALID,0,VALID,87.3592,VALID,0,VALID,23.5061,VALID,178,VALID,0.65,
2009-11-14, 03:26:05,VALID,997.507,VALID,0,VALID,87.4126,VALID,0,VALID,23.5469,VALID,178,VALID,0.720312,
2009-11-14, 03:27:05,VALID,997.514,VALID,0,VALID,87.382,VALID,0,VALID,23.5469,VALID,172,VALID,0.989844,
2009-11-14, 03:28:05,VALID,997.494,VALID,0,VALID,87.3515,VALID,0,VALID,23.5859,VALID,170,VALID,0.782812,
2009-11-14, 03:29:05,VALID,997.475,VALID,0,VALID,87.0082,VALID,0,VALID,23.5841,VALID,168,VALID,0.916797,
2009-11-14, 03:30:05,VALID,997.486,VALID,0,VALID,86.8709,VALID,0,VALID,23.625,VALID,167,VALID,0.685938,
2009-11-14, 03:31:05,VALID,997.496,VALID,0,VALID,86.8327,VALID,0,VALID,23.6232,VALID,167,VALID,0.699219,
2009-11-14, 03:32:05,VALID,997.508,VALID,0,VALID,86.7411,VALID,0,VALID,23.6427,VALID,166,VALID,0.710156,
2009-11-14, 03:33:05,VALID,997.541,VALID,0,VALID,86.7946,VALID,0,VALID,23.6427,VALID,166,VALID,0.523438,
2009-11-14, 03:34:05,VALID,997.583,VALID,0,VALID,86.8632,VALID,0,VALID,23.6232,VALID,166,VALID,0.484375,
2009-11-14, 03:35:05,VALID,997.597,VALID,0,VALID,86.8937,VALID,0,VALID,23.6036,VALID,166,VALID,0.545313,
2009-11-14, 03:36:05,VALID,997.612,VALID,0,VALID,87.0158,VALID,0,VALID,23.6036,VALID,166,VALID,0.434375,
2009-11-14, 03:37:05,VALID,997.609,VALID,0,VALID,87.0387,VALID,0,VALID,23.6054,VALID,166,VALID,0.5125,
2009-11-14, 03:38:05,VALID,997.614,VALID,0,VALID,87.0616,VALID,0,VALID,23.6054,VALID,166,VALID,0.474219,
2009-11-14, 03:39:05,VALID,997.605,VALID,0,VALID,87.0616,VALID,0,VALID,23.5841,VALID,166,VALID,0.383594,
2009-11-14, 03:40:05,VALID,997.571,VALID,0,VALID,87.1684,VALID,0,VALID,23.6054,VALID,166,VALID,0.351563,
2009-11-14, 03:41:05,VALID,997.583,VALID,0,VALID,87.115,VALID,0,VALID,23.5841,VALID,166,VALID,0.316797,
2009-11-14, 03:42:05,VALID,997.571,VALID,0,VALID,87.0311,VALID,0,VALID,23.5646,VALID,166,VALID,0.331641,
2009-11-14, 03:43:05,VALID,997.603,VALID,0,VALID,87.0463,VALID,0,VALID,23.6054,VALID,166,VALID,0.211328,
2009-11-14, 03:44:05,VALID,997.621,VALID,0,VALID,87.0463,VALID,0,VALID,23.5841,VALID,166,VALID,0.354297,
2009-11-14, 03:45:05,VALID,997.617,VALID,0,VALID,86.5504,VALID,0,VALID,23.6036,VALID,114,VALID,0.91875,
2009-11-14, 03:46:05,VALID,997.692,VALID,0,VALID,86.6649,VALID,0,VALID,23.6036,VALID,99,VALID,0.671875,
2009-11-14, 03:47:05,VALID,997.692,VALID,0,VALID,86.703,VALID,0,VALID,23.5823,VALID,82,VALID,0.785547,